Change the Weather History Date:

Tuesday, July 29, 2003

  Actual Average Record
Temperature  
Mean Temperature 81 °F 83 °F  
Max Temperature 90 °F 93 °F 108 °F (1930)
Min Temperature 73 °F 74 °F 62 °F (1994)
Degree Days  
Heating Degree Days 0 0  
Month to date heating degree days 0  
Since 1 June heating degree days 0  
Since 1 July heating degree days 0  
Cooling Degree Days 16 18  
Month to date cooling degree days 515  
Year to date cooling degree days 1221  
Since 1 June cooling degree days 940  
Growing Degree Days 31 (Base 50)    
Moisture  
Dew Point 72 °F    
Average Humidity 77    
Maximum Humidity 94    
Minimum Humidity 57    
Precipitation  
Precipitation 0.00 in 0.10 in 3.64 in (1889)
Month to date precipitation 3.09  
Year to date precipitation 28.64  
Snow  
Snow 0.00 in 0.00 in - ()
Month to date snowfall 0.0  
Since 1 June snowfall 0.0  
Since 1 July snowfall 0.0  
Snow Depth -    
Sea Level Pressure  
Sea Level Pressure 29.94 in    
Wind  
Wind Speed 8 mph (East)    
Max Wind Speed 17 mph    
Max Gust Speed 28 mph    
Visibility 7 miles    
Events Rain , Thunderstorm    
T = Trace of Precipitation, MM = Missing Value Source: NWS Daily Summary

Daily Weather History Graph

Daily Weather History Graph

Search for Another Location

Airport or City:

Trip Planner

Search our weather history database for the weather conditions in past years. The results will help you decide how hot, cold, wet, or windy it might be!

Date:

Astronomy

Jul. 29, 2003 Rise Set
Actual Time 6:16 AM CDT 8:13 PM CDT
Civil Twilight 5:48 AM CDT 8:41 PM CDT
Nautical Twilight 5:14 AM CDT 9:15 PM CDT
Astronomical Twilight 4:38 AM CDT 9:51 PM CDT
Moon 6:23 AM CDT (7/29) 9:01 PM CDT (7/29)
Length of Visible Light 14h 53m
Length of Day
13h 57m
New Moon, 0% of the Moon is Illuminated
Jul 29
New Moon
Aug 5
First Quarter
Aug 11
Full
Aug 19
Last Quarter
Aug 27
New

Hourly Weather History & Observations

Time (CDT) Temp. Heat Index Dew Point Humidity Pressure Visibility Wind Dir Wind Speed Gust Speed Precip Events Conditions
12:53 AM 80.1 °F 83.8 °F 72.0 °F 76% 29.93 in 7.0 mi SW 5.8 mph - N/A   Partly Cloudy
1:53 AM 79.0 °F - 71.1 °F 77% 29.93 in 7.0 mi SW 6.9 mph - N/A   Scattered Clouds
2:53 AM 78.1 °F - 71.1 °F 79% 29.91 in 7.0 mi SW 8.1 mph - N/A   Scattered Clouds
3:53 AM 78.1 °F - 71.1 °F 79% 29.91 in 7.0 mi WSW 4.6 mph - N/A   Scattered Clouds
4:53 AM 77.0 °F - 72.0 °F 84% 29.90 in 7.0 mi West 4.6 mph - N/A   Mostly Cloudy
5:53 AM 75.9 °F - 72.0 °F 87% 29.91 in 7.0 mi WNW 4.6 mph - N/A   Mostly Cloudy
6:53 AM 75.9 °F - 72.0 °F 87% 29.93 in 7.0 mi SW 3.5 mph - N/A   Mostly Cloudy
7:53 AM 80.1 °F 84.2 °F 73.0 °F 79% 29.94 in 7.0 mi SW 4.6 mph - N/A   Scattered Clouds
8:53 AM 82.0 °F 87.9 °F 73.9 °F 76% 29.96 in 7.0 mi Variable 4.6 mph - N/A   Scattered Clouds
9:53 AM 84.9 °F 92.1 °F 73.9 °F 69% 29.98 in 7.0 mi SSE 3.5 mph - N/A   Mostly Cloudy
10:53 AM 84.9 °F 93.3 °F 75.0 °F 72% 29.99 in 7.0 mi ENE 16.1 mph - N/A   Mostly Cloudy
11:53 AM 84.9 °F 91.4 °F 73.0 °F 67% 29.99 in 7.0 mi East 16.1 mph - N/A   Mostly Cloudy
12:53 PM 88.0 °F 93.8 °F 71.1 °F 57% 29.98 in 10.0 mi East 13.8 mph - N/A   Mostly Cloudy
1:53 PM 88.0 °F 94.7 °F 72.0 °F 59% 29.96 in 7.0 mi ESE 13.8 mph - N/A   Mostly Cloudy
2:53 PM 89.1 °F 98.0 °F 73.9 °F 61% 29.94 in 7.0 mi East 12.7 mph - N/A   Scattered Clouds
3:53 PM 89.1 °F 100.2 °F 75.9 °F 65% 29.91 in 7.0 mi SE 12.7 mph - N/A   Mostly Cloudy
4:53 PM 88.0 °F 98.5 °F 75.9 °F 67% 29.90 in 7.0 mi ESE 11.5 mph - N/A   Mostly Cloudy
5:53 PM 86.0 °F 93.8 °F 73.9 °F 67% 29.88 in 7.0 mi ESE 12.7 mph - N/A   Mostly Cloudy
6:38 PM 82.4 °F 86.3 °F 69.8 °F 66% 29.92 in 7.0 mi South 9.2 mph 20.7 mph N/A Thunderstorm Thunderstorm
6:53 PM 82.9 °F 88.0 °F 72.0 °F 69% 29.94 in 7.0 mi North 17.3 mph 27.6 mph N/A Thunderstorm Thunderstorm
7:11 PM 75.2 °F - 69.8 °F 83% 29.92 in 7.0 mi NNE 15.0 mph 27.6 mph 0.00 in Rain , Thunderstorm Light Thunderstorms and Rain
7:53 PM 77.0 °F - 70.0 °F 79% 29.90 in 7.0 mi ESE 10.4 mph - 0.00 in Rain , Thunderstorm Light Thunderstorms and Rain
8:38 PM 75.2 °F - 69.8 °F 83% 29.92 in 7.0 mi SE 5.8 mph - 0.00 in Rain Light Rain
8:53 PM 75.9 °F - 70.0 °F 82% 29.92 in 7.0 mi East 5.8 mph - 0.00 in Rain Light Rain
9:53 PM 73.9 °F - 70.0 °F 87% 29.94 in 7.0 mi NE 8.1 mph - 0.00 in   Mostly Cloudy
10:20 PM 75.2 °F - 69.8 °F 83% 29.95 in 7.0 mi NE 8.1 mph - N/A Thunderstorm Thunderstorm
10:53 PM 75.0 °F - 72.0 °F 90% 29.96 in 7.0 mi NNW 6.9 mph - N/A Thunderstorm Thunderstorm
11:01 PM 75.2 °F - 73.4 °F 94% 29.98 in 7.0 mi NNW 12.7 mph - N/A Thunderstorm Thunderstorm
11:17 PM 75.2 °F - 71.6 °F 89% 29.99 in 7.0 mi NNW 17.3 mph 23.0 mph N/A Thunderstorm Thunderstorm
11:43 PM 75.2 °F - 71.6 °F 89% 29.99 in 7.0 mi NE 13.8 mph - N/A Thunderstorm Thunderstorm
11:53 PM 75.0 °F - 72.0 °F 90% 29.97 in 7.0 mi ENE 15.0 mph - 0.00 in Rain , Thunderstorm Light Thunderstorms and Rain